星链-11327 (STARLINK-11327)

导读 | 星芒AI

STARLINK-11327 是 SpaceX Starlink 项目中的一颗低轨通信卫星,属于第 11 批发射的 Starlink 卫星群。该卫星于 2021 年 5 月 28 日由猎鹰 9 号火箭从佛罗里达州肯尼迪航天中心发射升空。它运行在约 550 公里的近地轨道上,旨在为全球用户提供高速互联网服务。Starlink 卫星群由数千颗卫星组成,致力于改善偏远地区的网络接入。STARLINK-11327 与其他 Starlink 卫星一样,具备激光通信和自动避障功能,以提升系统稳定性和安全性。

基本信息
目录编号:
61695
目录名称:
STARLINK-11327
国际标识:
2024-195J
轨道中心:
EARTH
卫星名称:
星链-11327
卫星全名:
星链-11327 (STARLINK-11327)
卫星状态:
在轨 (已飞行411 天)
发射日期:
2024-10-30 UTC
国别 :
美国 (US)
星等 :
--
轨道信息
数据来源 国际轨道数据
星历时间: 2025-12-15T01:54:27+0800
1天前
查看轨道信息
半长轴: 6737.799km
偏心率: 0.0001227
轨道倾角: 53.159°
近地点辐角 119.015°
升交点赤经 84.901°
平近点角 241.100°
近地点: 358.837km
远地点: 360.491km
周期: 91.735分钟
每日圈数: 15.697329
详细信息
固有亮度:
5
最大亮度:
2.5
卫星平台:
Starlink V1.0
覆盖范围:
全球
运营商:
太空探索技术公司
运营商所在国:
美国
制造商(研发单位):
太空探索技术公司
制造商所在国:
美国
使用方式:
暂无
卫星简介
Starlink 计划是 SpaceX 推出的全球卫星互联网项目,通过发射低轨道卫星,为全球尤其是偏远地区提供高速、低延迟的互联网服务。自 2019 年起,Starlink 已部署数千颗卫星,旨在缩小全球数字鸿沟,推动互联网普及。该项目还为军事、航空等行业提供通信支持,带来广泛经济效益。
2D轨道图
3D轨道图
轨道高度分析图
轨道倾角分析图
轨道综合分析图
查看轨道综合分析图